THORAD AGENA D DEB, 4644

Orbit data source: Space-Track

THORAD AGENA D DEB, 4644 is space debris in SSO originally from a launch on Wed, 08 Apr 1970 UTC launched from the Air Force Western Test Range (AFWTR). Debris objects in space refer to the collection of defunct objects orbiting the Earth. Examples of debris include non-operational satellites, rocket bodies, and fragments generated from explosions, collisions, or faulty payload assembly.

Loading next visibility...
THORAD AGENA D DEB details
Identifier
4644, 1970-025AC
Orbit
SSO
Last TLE update23 hours ago
Origin
Flag of USGSFC (US)
ManufacturerUnknown
MissionSpacecraft
Bus & MotorUnknown
MassUnknown
Launch date (UTC)
1970-04-08 (55 years ago)
Launch vehicleUnknown
Launch site
Air Force Western Test Range (AFWTR)
Object type
Payload
Rocket body
Debris
Shape & HBRUnknown
Radar Cross SectionMedium (>0.1 m² and <1 m²)

Expand to show TLE details & history

TLE from 23 hours ago
0 THORAD AGENA D DEB
1 04644U 70025AC  24360.53039530  .00000598  00000-0  85914-3 0  9997
2 04644  99.6010 254.8298 0009946 235.3568 248.7581 13.60041439703942
Epoch: 2024-12-25T12:43Z
Definitive object data (Epoch: 2024-12-25T12:43:46.153Z)
Latitude54.9177°
Longitude163.22763°
Altitude1,047.219 km
Speed7.332 km/s
True Right ascension05h 54m 46s
True Declination54° 45' 44"
Sunlit
Object was in full shadow at TLE epoch
Visualization TLE readout
Latitude50.89137°
Longitude-41.65961°
Altitude1,050.982 km
Speed7.328 km/s
Apparent Right ascension19h 33m 33s
Apparent Declination14° 38' 36"
Sunlit
Object is in daylight
Visualization observer readout
Local Sidereal Time10:40:57
Azimuth48.777° ENE
Elevation-20.199°
Doppler factor1
Orbital elements
Apogee altitude1,040.195 km
Perigee altitude1,025.453 km
Semi-major axis7,410.961 km
Eccentricity0.0009946
Inclination99.601°
RAAN254.8298°
Arg. of periapsis235.3568°
True anomaly248.65192°
Mean anomaly248.7581°
Eccentric anomaly248.705°
Mean motion3.40198 °/min
BSTAR0.00085914
Orbital period105.82 mins
Loading maneuver chart data...

THORAD AGENA D DEB Visibility forecast

Observer location: undefined°, undefined

Span
Click to sort rows by Start time (UTC) header in descending order
Start Az.
Max El. time (UTC)
Max El. Az.
Max El.
End time (UTC)
End Az.
12 mins2024-12-26 16:28:37.815Z141.857° SSE2024-12-26 16:34:37.815Z72.323° E37.599°2024-12-26 16:40:37.815Z356.561° N
8 mins2024-12-26 18:15:37.815Z220.445° SW2024-12-26 18:19:37.815Z269.37° W23.747°2024-12-26 18:23:37.815Z314.294° NW
10 mins2024-12-27 05:20:37.815Z36.344° NE2024-12-27 05:25:37.815Z104.073° ESE31.649°2024-12-27 05:30:37.815Z162.58° S
9 mins2024-12-27 07:05:37.815Z348.496° N2024-12-27 07:09:37.815Z294.794° NW29.891°2024-12-27 07:14:37.815Z234.989° WSW
|